TimeCST,TemperatureF,Dew PointF,Humidity,Sea Level PressureIn,VisibilityMPH,Wind Direction,Wind SpeedMPH,Gust SpeedMPH,PrecipitationIn,Events,Conditions,WindDirDegrees,DateUTC
12:56 AM,5.0,1.0,84,30.46,10.0,NNE,5.8,-,N/A,,Clear,30,2013-02-21 06:56:00
1:56 AM,3.9,-0.0,84,30.46,10.0,ENE,4.6,-,N/A,,Clear,60,2013-02-21 07:56:00
2:56 AM,3.9,-0.0,84,30.47,10.0,Calm,Calm,-,N/A,,Clear,0,2013-02-21 08:56:00
3:56 AM,1.0,-2.9,83,30.50,10.0,Calm,Calm,-,N/A,,Clear,0,2013-02-21 09:56:00
4:56 AM,-0.9,-4.0,87,30.50,10.0,ENE,5.8,-,N/A,,Clear,60,2013-02-21 10:56:00
5:56 AM,-0.9,-5.1,83,30.45,10.0,NE,6.9,-,N/A,,Clear,50,2013-02-21 11:56:00
6:56 AM,1.0,-2.9,83,30.40,10.0,NE,6.9,-,N/A,,Clear,50,2013-02-21 12:56:00
7:32 AM,1.4,-4.0,78,30.44,10.0,Calm,Calm,-,N/A,,Clear,0,2013-02-21 13:32:00
7:56 AM,3.0,-0.9,84,30.51,10.0,Calm,Calm,-,N/A,,Clear,0,2013-02-21 13:56:00
8:56 AM,7.0,1.0,77,30.48,10.0,ENE,4.6,-,N/A,,Clear,60,2013-02-21 14:56:00
10:56 AM,10.9,1.0,64,30.46,10.0,NE,6.9,-,N/A,,Clear,50,2013-02-21 16:56:00
12:56 PM,16.0,3.9,59,30.40,10.0,NE,11.5,-,N/A,,Clear,50,2013-02-21 18:56:00
1:56 PM,19.0,7.0,59,30.35,10.0,ENE,9.2,-,N/A,,Clear,60,2013-02-21 19:56:00
2:56 PM,19.9,6.1,55,30.35,10.0,NE,8.1,-,N/A,,Clear,50,2013-02-21 20:56:00
3:56 PM,21.0,7.0,55,30.33,10.0,ENE,9.2,-,N/A,,Clear,60,2013-02-21 21:56:00
4:56 PM,19.9,8.1,60,30.31,10.0,ENE,8.1,-,N/A,,Clear,60,2013-02-21 22:56:00
5:56 PM,19.9,9.0,62,30.27,10.0,ENE,6.9,-,N/A,,Clear,60,2013-02-21 23:56:00
6:56 PM,19.9,9.0,62,30.25,10.0,East,5.8,-,N/A,,Clear,90,2013-02-22 00:56:00
7:56 PM,19.0,9.0,65,30.22,10.0,ENE,3.5,-,N/A,,Clear,70,2013-02-22 01:56:00
8:56 PM,19.0,9.0,65,30.20,10.0,East,4.6,-,N/A,,Clear,80,2013-02-22 02:56:00
9:56 PM,19.0,10.0,68,30.17,10.0,ENE,4.6,-,N/A,,Clear,60,2013-02-22 03:56:00
10:32 PM,19.4,10.4,68,30.10,10.0,NE,4.6,-,N/A,,Mostly Cloudy,40,2013-02-22 04:32:00
10:56 PM,19.9,10.9,68,30.15,10.0,NE,4.6,-,N/A,,Overcast,50,2013-02-22 04:56:00
11:56 PM,19.9,10.9,68,30.14,10.0,NE,3.5,-,N/A,,Overcast,40,2013-02-22 05:56:00